Flag for Canada Weather past 2 weeks in Coquitlam, British Columbia, Canada

Now
50 °F

Cool.


Feels Like: 50 °F
Forecast: 46 / 53 °F
Wind: 3 mph from Northeast

Location: P. Meadows Coastal Station

Current Time: Oct 23, 2014 at 6:27:46 AM

Latest Report: Oct 23, 2014 at 6:00 AM


Visibility: N/A

Pressure: 29.69 "Hg

Humidity: 93%

Dew point: 48 °F

Location of CoquitlamLocation

Historic Weather in Coquitlam — Graph

°F

Coquitlam temperature yesterday

Maximum temperature yesterday: 62 °F (at 2:00 AM)
Minimum temperature yesterday: 52 °F (at 7:00 PM)
Average temperature yesterday: 56 °F

Past Weeks' High & Low Weather Summary

 TemperatureHumidityPressure
High72 °F (Oct 9, 4:00 PM)100% (Oct 14, 9:00 PM)30.24 "Hg (Oct 14, 9:00 PM)
Low47 °F (Oct 17, 12:00 AM)54% (Oct 19, 1:00 PM)29.50 "Hg (Oct 22, 8:00 PM)
Average56 °F89%29.85 "Hg
* Reported Oct 8 5:00 AM — Oct 23 5:00 AM, Coquitlam, Weather by CustomWeather, © 2014

Note: Actual official high and low records may vary slightly from our data, if they occured in-between our weather recording intervals... More about our weather records

Advertising

Coquitlam weather history for previous 24 hours

 ConditionsComfort  
Time TempWeatherWind HumidityBarometerVisibility
5:00 AM
Oct 23
50 °FCool.2 mph94%29.69 "HgN/A
4:00 AM50 °FCool.3 mph92%29.69 "HgN/A
3:00 AM53 °FCool.3 mph84%29.69 "HgN/A
2:00 AM51 °FCool.2 mph90%29.66 "HgN/A
1:00 AM53 °FCool.1 mph85%29.64 "HgN/A
12:00 AM55 °FCool.3 mph83%29.61 "HgN/A
11:00 PM
Oct 22
55 °FCool.7 mph88%29.57 "HgN/A
10:00 PM55 °FCool.5 mph91%29.52 "HgN/A
8:00 PM52 °FCool.2 mph97%29.50 "HgN/A
7:00 PM52 °FCool.6 mph89%29.52 "HgN/A
6:00 PM53 °FCool.9 mph87%29.55 "HgN/A
5:00 PM55 °FCool.2 mph94%29.57 "HgN/A
4:00 PM55 °FCool.3 mph94%29.61 "HgN/A
3:00 PM55 °FCool.1 mph94%29.64 "HgN/A
2:00 PM57 °FCool.2 mph89%29.66 "HgN/A
1:00 PM57 °FCool.5 mph90%29.67 "HgN/A
12:00 PM58 °FCool.2 mph85%29.67 "HgN/A
11:00 AM58 °FCool.3 mph84%29.67 "HgN/A
10:00 AM57 °FCool.5 mph84%29.67 "HgN/A
9:00 AM57 °FCool.6 mph85%29.66 "HgN/A
8:00 AM54 °FCool.7 mph91%29.64 "HgN/A
7:00 AM56 °FCool.6 mph84%29.62 "HgN/A
6:00 AM54 °FCool.5 mph88%29.62 "HgN/A
Weather by CustomWeather, © 2014

See weather overviewHow to use our weather pages